Regional Weather Roundup
Issued by NWS

Home | Current Version | Previous Version | Text Only | Print | Product List | Glossary Off
Versions: 1 2 3 4 5 6 7 8 9 10 11 12 13 14 15 16 17 18 19 20 21 22 23 24 25 26 27 28 29 30 31 32 33 34 35 36 37 38 39 40 41 42 43 44 45 46 47 48 49 50

000
ASUS43 KLMK 040402
RWRKY
KENTUCKY REGIONAL WEATHER ROUNDUP
NATIONAL WEATHER SERVICE LOUISVILLE KY
1100 PM EST SAT DEC 03 2016

NOTE "FAIR" INDICATES FEW OR NO CLOUDS BELOW 12,000 FEET
WITH NO SIGNIFICANT WEATHER AND/OR OBSTRUCTIONS TO VISIBILITY.

KYZ001>023-026-027-061>063-070>075-040500-
WESTERN AND SOUTH CENTRAL KENTUCKY

CITY           SKY/WX    TMP DP  RH WIND       PRES   REMARKS
PADUCAH        LGT RAIN  40  34  79 E5        30.22F
HENDERSON      CLOUDY    41  28  60 E7        30.25F
OWENSBORO      CLOUDY    42  30  62 E7        30.26F
HOPKINSVILLE   DRIZZLE   39  36  87 E6        30.22F WCI  35
BOWLING GREEN  CLOUDY    42  33  70 E6        30.26F
GLASGOW        CLOUDY    39  33  77 E5        30.25F
$$

KYZ024-025-028>034-038-045-046-053-040500-
NORTH CENTRAL KENTUCKY

CITY           SKY/WX    TMP DP  RH WIND       PRES   REMARKS
LOUISVILLE/SDF CLOUDY    41  27  57 E5        30.28F
LOUISVILLE/LOU CLOUDY    41  29  62 CALM      30.28F
FORT KNOX      CLOUDY    39  29  67 NE3       30.25F
$$

KYZ035>037-039>044-047>052-055>060-089>105-040500-
NORTHEAST KENTUCKY

CITY           SKY/WX    TMP DP  RH WIND       PRES   REMARKS
LEXINGTON      MOCLDY    39  28  64 E6        30.28F WCI  35
COVINGTON      CLOUDY    37  29  72 CALM      30.28F
FRANKFORT      CLOUDY    39  29  67 CALM      30.27F
$$

KYZ054-064>069-076>088-106>120-040500-
SOUTHEAST KENTUCKY

CITY           SKY/WX    TMP DP  RH WIND       PRES   REMARKS
JACKSON        CLOUDY    37  29  72 CALM      30.27S
LONDON         CLOUDY    39  28  64 E5        30.26F
SOMERSET       CLOUDY    37  30  75 E3        30.28S
MIDDLESBORO    CLOUDY    39  34  82 CALM      30.26F
MONTICELLO     CLOUDY    40  32  73 W6        30.27F
$$




USA.gov is the U.S. government's official web portal to all federal, state and local government web resources and services.